Home > Time Zones > World Clock > Weather > Qatar > Doha > Past weeks

Flag for Qatar Weather past 2 weeks in Doha, Qatar

Now
100 °F

Clear.


Feels Like: 117 °F
Forecast: 86 / 100 °F
Wind: 7 mph from East

Location: Doha International Airport

Current Time: Aug 23, 2014 at 12:31:28 PM

Latest Report: Aug 23, 2014 at 12:00 PM


Visibility: 4 mi

Pressure: 29.59 "Hg

Humidity: 47%

Dew point: 77 °F

Location of DohaLocation

Historic Weather in Doha — Graph

°F

Doha temperature yesterday

Maximum temperature yesterday: 108 °F (at 11:00 AM)
Minimum temperature yesterday: 91 °F (at 2:00 AM)
Average temperature yesterday: 96 °F

Past Weeks' High & Low Weather Summary

 TemperatureHumidityPressure
High109 °F (Aug 8, 1:00 PM)89% (Aug 10, 11:00 PM)29.77 "Hg (Aug 10, 11:00 PM)
Low86 °F (Aug 13, 5:00 AM)17% (Aug 8, 2:00 PM)29.39 "Hg (Aug 8, 4:00 PM)
Average96 °F61%29.54 "Hg
* Reported Aug 8 11:00 AM — Aug 23 11:00 AM, Doha, Weather by CustomWeather, © 2014

Note: Actual official high and low records may vary slightly from our data, if they occured in-between our weather recording intervals... More about our weather records

Advertising

Doha weather history for previous 24 hours

 ConditionsComfort  
Time TempWeatherWind HumidityBarometerVisibility
11:00 AM
Aug 23
99 °FClear.6 mph57%29.59 "Hg4 mi
10:30 AM99 °FClear.5 mph57%29.59 "Hg4 mi
10:00 AM97 °FPassing clouds.9 mph63%29.62 "Hg3 mi
9:00 AM97 °FClear.9 mph60%29.59 "Hg4 mi
8:30 AM97 °FClear.6 mph56%29.59 "Hg4 mi
8:00 AM97 °FClear.5 mph53%29.59 "Hg4 mi
7:30 AM95 °FClear.2 mph60%29.59 "Hg4 mi
7:00 AM93 °FClear.5 mph63%29.59 "Hg4 mi
6:00 AM91 °FClear.6 mph67%29.56 "Hg4 mi
5:00 AM91 °FClear.6 mph71%29.56 "Hg4 mi
4:00 AM91 °FClear.6 mph75%29.53 "Hg4 mi
3:00 AM91 °FClear.5 mph75%29.53 "Hg4 mi
2:00 AM91 °FClear.3 mph80%29.53 "Hg4 mi
1:30 AM91 °FClear.2 mph75%29.56 "Hg4 mi
1:00 AM91 °FClear.1 mph80%29.56 "Hg4 mi
12:00 AM91 °FClear.1 mph80%29.56 "Hg4 mi
11:00 PM
Aug 22
91 °FClear.1 mph80%29.59 "Hg4 mi
10:00 PM93 °FClear.2 mph75%29.59 "Hg4 mi
9:00 PM93 °FClear.3 mph75%29.59 "Hg4 mi
8:00 PM93 °FClear.5 mph75%29.56 "Hg4 mi
7:30 PM95 °FClear.5 mph71%29.56 "Hg4 mi
7:00 PM95 °FClear.5 mph71%29.53 "Hg4 mi
6:30 PM95 °FClear.6 mph71%29.53 "Hg4 mi
6:00 PM97 °FClear.7 mph63%29.53 "Hg4 mi
5:30 PM97 °FClear.7 mph67%29.53 "Hg4 mi
5:00 PM99 °FClear.7 mph60%29.53 "Hg4 mi
4:30 PM99 °FClear.8 mph57%29.50 "Hg4 mi
4:00 PM99 °FClear.10 mph64%29.50 "Hg4 mi
3:30 PM100 °FClear.10 mph53%29.50 "Hg4 mi
3:00 PM102 °FClear.12 mph48%29.50 "Hg4 mi
2:30 PM102 °FClear.12 mph48%29.50 "Hg4 mi
2:00 PM102 °FClear.12 mph51%29.50 "Hg4 mi
1:00 PM102 °FClear.10 mph51%29.53 "Hg4 mi
12:00 PM108 °FClear.7 mph26%29.56 "Hg6 mi
Weather by CustomWeather, © 2014

See weather overviewHow to use our weather pages